GFSGBSN_700_spd_057.txt.gz
Wind_Speed
33 34 35 34 35 36 37 36 37 37 36 35 33 31 29 27 25 24 24 24 22 20 20 20 19 18 14 11 10 7 6 5 4 3 4 8 5 1 3 5 8 9 6 1 3 6 2
35 34 33 33 31 33 34 35 36 36 37 35 34 32 31 29 26 26 25 24 21 19 19 19 17 17 14 11 9 5 3 4 5 5 10 10 3 3 1 4 9 5 3 5 3 3 3
38 36 35 32 31 30 30 30 33 34 36 35 34 33 31 30 28 27 26 24 21 19 19 18 16 16 13 9 7 1 2 7 8 7 12 4 2 3 4 3 7 1 1 5 3 3 7
42 40 38 35 34 32 29 28 28 29 31 32 33 32 32 31 29 28 26 24 21 19 18 17 15 14 9 5 2 6 9 11 11 8 9 8 8 6 3 3 4 4 2 2 7 6 7
47 45 42 39 36 34 32 30 27 27 27 27 28 30 28 30 29 28 26 24 21 20 18 17 13 12 6 7 10 14 12 11 9 6 1 7 9 6 6 5 2 5 7 3 3 9 8
52 50 47 44 41 37 34 32 29 29 26 24 23 24 24 27 29 28 26 24 22 21 19 16 14 12 9 10 11 20 14 11 8 4 2 2 3 4 8 6 2 2 4 2 6 10 17
57 55 53 50 46 43 39 35 32 30 27 25 22 19 22 23 27 27 25 23 21 22 20 16 13 8 8 12 17 20 16 12 9 5 3 1 3 7 6 5 5 5 4 12 22 18 18
64 60 57 56 52 48 44 40 36 32 29 26 21 19 20 20 24 25 24 22 24 23 21 16 16 14 16 16 20 20 17 15 13 8 5 4 6 4 4 10 11 13 10 18 15 11 18
71 67 64 59 58 54 50 45 41 36 32 28 24 21 19 19 22 23 21 25 22 17 21 16 20 17 21 18 20 20 21 18 14 10 7 11 11 10 13 10 16 16 19 21 21 16 9
75 73 70 66 61 58 55 50 46 41 36 31 27 23 20 19 20 20 22 22 17 13 12 12 12 15 23 22 20 23 25 20 16 10 6 10 15 15 11 13 14 20 9 14 11 8 5
58 74 75 72 68 63 60 56 51 46 40 35 30 26 23 19 17 20 22 18 13 10 4 5 13 15 20 22 11 21 25 24 18 12 6 8 7 10 12 6 8 15 15 9 8 9 7
45 51 71 77 73 69 64 60 56 51 45 39 34 29 26 21 19 21 19 16 13 7 8 9 15 17 23 24 14 23 27 22 16 13 10 12 4 3 6 4 8 11 7 4 8 4 2
52 47 48 69 76 73 69 64 60 56 50 44 38 34 29 24 20 25 21 19 12 10 9 14 20 17 21 26 21 28 29 25 21 14 17 15 12 12 7 7 9 7 2 3 3 2 5
54 52 46 48 67 75 72 69 64 60 55 48 41 39 33 28 27 29 26 24 16 7 17 11 20 18 19 30 24 23 28 24 24 18 13 20 11 12 10 7 11 8 7 6 4 2 3
56 54 50 47 48 61 73 71 68 62 59 52 46 44 40 33 33 32 34 34 17 14 26 10 21 22 20 25 25 26 27 23 25 23 17 11 11 10 15 12 8 9 8 7 3 2 1
56 56 53 49 47 51 60 70 70 66 61 55 52 47 43 35 36 37 42 43 33 28 16 21 17 25 24 27 24 24 23 22 24 20 15 21 15 14 8 16 15 13 8 6 7 2 3
58 57 55 52 48 44 57 58 69 67 64 58 54 51 47 39 41 43 56 45 38 31 18 17 16 24 25 24 32 28 19 19 21 19 22 20 18 16 17 19 20 20 17 12 8 5 4
57 58 58 53 50 47 54 52 52 59 61 58 57 55 52 44 43 54 60 47 29 43 31 17 18 17 25 26 25 31 28 22 19 20 19 21 16 19 23 24 23 22 23 16 12 7 8
61 56 58 55 52 48 52 58 54 47 48 54 59 53 40 49 56 57 55 53 45 38 43 31 18 15 16 10 30 26 29 25 23 18 14 22 14 16 17 21 24 16 21 22 19 20 15
63 63 57 56 52 46 49 52 54 55 53 55 57 38 40 48 59 52 56 50 52 46 40 44 35 16 14 15 15 21 26 28 25 24 19 16 19 19 15 19 21 20 20 18 19 20 18
60 63 60 57 53 50 57 53 54 59 58 57 52 44 54 55 68 54 55 52 48 47 48 37 45 36 20 13 15 14 20 19 24 24 22 24 22 21 20 18 18 16 24 19 15 19 15
58 60 59 57 52 53 65 54 55 64 62 60 59 47 52 58 63 64 50 57 49 49 40 44 47 41 33 25 13 8 16 18 18 21 23 28 16 21 16 16 17 18 19 18 18 20 19
56 59 58 58 53 55 71 61 51 69 67 61 64 44 50 57 55 55 69 62 55 48 48 39 34 41 38 26 15 11 13 14 17 20 26 28 25 21 20 19 21 23 32 30 30 27 28
54 55 55 56 53 54 59 67 56 73 71 33 67 47 48 49 52 62 61 55 56 52 47 37 41 36 39 26 21 21 18 19 18 22 25 24 24 19 13 12 2 25 26 26 31 33 34
53 55 55 55 49 49 58 63 58 76 72 35 66 55 45 45 50 43 49 49 50 48 46 43 34 36 29 34 24 15 16 20 23 28 26 24 23 16 10 16 16 11 17 18 18 16 15
52 53 54 47 46 48 52 69 63 79 76 45 71 60 35 35 52 47 37 37 47 49 40 42 34 30 34 29 21 21 15 17 18 25 28 25 22 23 14 7 8 17 21 22 22 21 20
50 50 45 40 41 44 50 66 68 73 75 55 71 57 47 36 32 31 44 44 29 33 41 35 37 32 33 32 26 25 28 18 23 27 23 26 24 26 23 14 11 17 15 15 18 22 25
44 42 36 36 37 43 49 59 65 82 78 58 75 57 48 31 37 45 37 32 30 37 37 31 33 38 35 34 33 22 17 24 21 26 31 34 29 26 24 18 14 20 21 25 22 22 15
40 35 33 33 38 41 48 63 65 72 63 56 76 60 52 35 36 25 37 45 40 33 29 31 32 29 36 28 31 24 19 23 24 25 30 32 34 29 22 21 18 12 13 19 23 19 14

GFSGBSN_700_spd_060.txt.gz
Wind_Speed
36 35 36 36 36 37 39 38 38 38 37 35 34 31 30 29 28 28 27 26 26 25 22 19 19 16 14 11 11 7 4 4 3 1 3 7 6 3 3 4 4 3 7 2 2 2 4
40 38 36 35 35 35 36 38 37 38 38 37 35 33 32 31 30 29 28 27 27 25 23 19 19 15 14 11 6 3 2 2 2 3 10 8 3 2 1 6 7 4 4 2 1 3 4
44 42 40 39 36 34 34 35 35 35 36 36 35 34 33 32 31 29 28 28 27 25 24 19 19 15 13 8 3 5 4 5 4 6 12 7 4 3 3 2 7 4 5 1 5 1 6
48 47 44 42 40 38 35 34 33 32 32 31 31 30 31 33 33 30 28 28 27 26 24 19 20 15 10 6 8 9 9 10 8 8 11 9 10 6 5 4 4 2 1 2 1 2 6
52 50 49 47 44 41 40 36 34 32 30 28 28 27 26 30 32 31 28 27 27 27 23 20 20 15 11 8 12 13 15 14 10 7 6 9 10 10 10 7 4 6 1 8 4 3 12
57 55 53 51 49 46 43 41 37 34 31 28 26 25 22 26 28 28 28 28 27 27 23 20 20 16 13 10 14 15 19 18 12 6 2 4 6 7 8 6 3 4 4 4 14 12 22
64 61 58 55 52 50 47 44 41 37 34 30 27 24 21 22 24 26 24 26 26 26 26 21 17 8 7 12 14 21 18 18 14 9 6 3 1 2 5 6 6 9 6 6 12 12 18
64 67 64 61 57 55 52 49 45 41 37 32 29 25 21 20 22 23 24 21 25 25 28 22 22 22 19 17 19 25 21 19 18 12 8 5 2 3 4 7 9 11 10 11 17 12 21
42 54 67 66 63 60 57 54 50 46 41 35 31 27 24 22 21 20 21 21 19 22 27 24 25 24 20 23 23 29 25 19 17 14 11 7 3 9 10 12 11 15 14 16 17 21 20
47 45 45 63 68 65 61 58 55 51 45 40 34 30 27 24 21 17 18 18 15 15 15 20 16 26 25 26 25 28 25 21 20 17 10 7 4 13 16 13 11 15 13 15 17 6 4
51 49 47 45 58 68 65 63 59 55 50 45 39 33 30 28 21 17 17 15 11 10 4 6 18 16 24 30 17 31 29 26 23 17 14 4 2 8 11 10 10 11 11 13 3 6 7
52 53 51 47 44 55 68 66 63 60 55 50 43 37 34 30 23 18 16 14 13 9 9 7 11 18 26 31 19 27 29 30 25 19 16 10 6 6 2 4 5 6 5 2 5 4 3
54 54 54 52 47 43 54 68 66 64 59 54 48 42 38 32 25 24 20 19 13 12 9 11 16 20 24 31 24 22 32 35 29 24 22 15 11 11 8 8 6 4 6 4 3 1 5
53 53 56 54 51 46 42 59 68 67 63 58 52 47 42 36 28 29 28 27 16 9 18 10 18 19 23 28 29 23 30 34 31 22 16 19 9 13 10 9 5 6 4 2 2 2 4
56 52 54 55 55 50 44 42 61 66 66 61 56 53 48 39 32 34 33 36 16 18 23 14 21 22 23 28 27 27 32 36 32 29 19 16 13 10 8 12 9 5 5 6 3 3 3
63 58 56 54 57 54 48 42 45 53 65 61 60 57 53 42 36 37 41 47 29 19 13 27 18 21 27 30 29 29 29 36 33 28 23 14 10 13 8 8 12 11 8 3 4 1 4
61 57 53 57 55 56 51 42 38 43 47 59 55 58 57 48 40 42 52 54 40 26 16 18 21 19 24 28 36 30 24 16 32 25 26 24 15 11 17 16 12 13 16 13 9 4 4
56 55 53 57 56 56 54 46 39 44 39 48 46 60 56 52 47 54 53 56 38 44 26 18 18 20 25 25 32 28 32 32 18 27 28 23 13 20 20 16 17 20 18 19 17 7 7
56 54 55 57 59 57 56 51 45 47 43 50 48 56 42 52 56 61 50 51 50 44 38 30 20 19 20 23 23 34 33 28 26 23 24 24 17 18 13 19 24 22 22 23 22 19 14
53 52 55 56 61 59 58 54 47 49 48 56 48 45 36 40 60 63 49 44 55 51 38 42 31 18 16 16 21 17 29 32 29 25 18 19 24 24 23 25 18 17 18 15 19 17 19
58 60 54 58 62 60 59 57 53 57 51 60 53 43 53 51 64 67 59 51 50 56 50 37 46 32 20 11 18 21 21 25 28 30 26 26 24 25 24 20 18 21 23 21 26 24 21
55 54 52 54 62 61 60 57 55 54 58 64 50 46 52 50 65 66 43 52 51 52 41 51 38 45 31 19 16 14 11 20 27 27 29 26 23 23 24 24 25 19 19 21 20 19 22
53 52 51 62 63 63 58 58 56 57 67 71 48 53 52 54 56 58 71 54 53 48 53 45 41 38 42 31 15 12 13 15 15 15 25 30 31 26 23 22 20 19 26 25 25 28 31
56 52 54 58 64 62 57 59 55 64 75 77 57 55 50 46 48 68 62 52 49 54 48 47 27 25 43 37 27 24 21 19 21 20 18 25 25 28 22 18 2 27 26 26 28 28 31
53 52 51 56 61 59 57 58 56 64 71 76 60 58 54 45 49 49 54 57 40 48 47 43 36 38 11 17 28 28 29 25 24 23 22 25 27 21 15 18 21 19 22 21 17 21 18
46 50 46 57 57 56 55 54 61 58 60 73 56 60 51 39 46 52 39 47 54 51 45 46 39 19 25 29 30 16 11 15 16 26 27 27 27 27 16 8 8 24 19 18 19 28 22
41 45 48 53 57 52 54 53 62 61 56 77 51 60 49 39 30 40 49 49 38 48 50 44 41 37 26 25 21 26 25 18 16 29 30 29 28 29 27 16 17 20 16 11 18 30 19
38 37 44 52 51 50 48 52 67 61 51 77 70 64 58 31 34 28 36 43 39 37 37 35 29 34 33 36 28 19 17 26 23 20 30 32 29 27 27 19 14 22 19 24 24 20 18
36 43 47 49 45 47 47 52 58 64 62 66 76 38 44 40 29 26 32 35 36 37 31 25 24 25 33 30 30 19 19 22 26 28 25 29 31 30 29 26 27 18 18 18 19 20 21

GFSGBSN_700_spd_063.txt.gz
Wind_Speed
38 38 38 37 37 37 37 36 37 37 37 35 35 34 32 32 30 30 28 26 25 24 23 21 20 16 16 13 10 7 6 4 2 1 5 7 7 5 6 1 4 5 8 2 5 7 4
41 41 40 39 39 37 37 37 36 35 36 36 34 34 33 33 33 32 30 28 27 26 24 22 20 16 16 12 9 7 7 4 2 3 9 10 7 7 6 1 1 3 7 3 1 3 5
45 44 43 43 41 40 38 37 36 36 34 33 35 31 33 34 34 34 32 30 28 27 25 24 20 17 15 12 8 9 9 8 5 6 12 10 6 7 4 1 1 1 3 3 3 3 6
50 49 47 45 44 43 41 40 37 36 34 32 30 31 28 32 33 33 33 31 29 28 26 24 21 19 15 13 11 13 12 12 9 9 12 11 9 5 5 3 2 1 1 1 2 5 7
56 54 52 50 48 46 45 43 40 38 35 33 30 29 29 28 30 31 32 32 30 28 27 24 21 20 17 15 14 17 15 16 12 10 12 10 10 8 7 8 3 4 2 2 2 8 6
56 58 58 55 53 50 48 46 44 41 37 35 32 30 28 27 26 27 27 30 30 29 27 26 21 19 16 10 16 18 19 20 16 13 10 8 8 8 10 9 3 5 6 1 6 10 14
47 50 55 59 58 56 52 50 48 45 41 37 34 30 29 26 26 24 23 26 28 28 27 25 16 10 15 15 17 19 23 22 19 16 10 6 5 4 6 7 6 7 6 9 6 12 19
38 39 43 49 55 59 57 54 51 49 45 40 36 33 30 28 27 23 22 21 26 27 28 25 23 23 19 15 19 22 26 25 23 18 13 10 6 6 3 4 7 7 9 7 8 12 15
41 41 40 41 41 48 58 59 56 51 49 44 40 35 31 30 28 23 21 18 22 24 28 29 24 24 23 27 22 26 29 27 23 20 15 12 6 7 7 8 10 10 12 11 13 15 8
45 45 45 45 44 42 43 56 59 56 52 49 44 39 34 32 29 23 19 19 15 16 16 23 19 25 27 28 29 29 31 27 23 22 15 11 12 8 12 12 11 14 8 9 12 11 2
50 49 49 49 48 46 44 44 54 59 56 52 47 42 38 35 29 24 20 15 12 10 4 7 16 21 26 34 24 34 34 31 25 23 20 9 8 6 8 10 8 8 5 8 8 5 4
54 53 52 52 51 50 48 44 43 56 60 55 51 46 43 39 30 22 20 16 14 10 9 8 10 18 23 35 30 33 37 32 26 23 20 16 9 6 2 5 5 5 5 3 4 3 1
57 54 53 53 51 52 50 47 42 43 59 58 54 51 47 41 31 25 20 18 14 11 7 10 13 20 22 35 34 29 42 39 33 26 26 20 18 11 7 4 7 8 5 1 1 2 2
54 51 51 50 50 50 52 49 43 41 44 60 58 54 50 45 35 29 26 25 17 12 21 7 17 17 23 33 31 26 40 41 37 30 22 22 11 17 9 8 6 9 8 4 3 2 1
53 53 51 52 49 50 50 51 46 41 38 45 55 57 56 48 40 33 36 34 24 22 15 17 12 18 23 31 26 28 33 42 39 38 22 24 17 10 11 8 10 8 8 5 4 2 1
56 54 52 50 51 52 49 50 49 43 40 37 44 55 60 49 45 39 43 45 31 21 19 27 14 19 23 29 29 30 28 35 38 37 30 15 8 18 15 12 12 10 5 3 4 3 3
59 58 55 51 48 52 52 49 49 44 39 35 38 40 63 52 48 45 56 50 44 32 25 14 25 13 18 27 34 37 21 16 36 35 32 27 17 10 17 16 13 14 14 9 5 5 3
55 54 56 55 51 49 49 52 49 46 39 37 38 44 49 53 52 55 61 49 37 46 26 20 17 19 17 22 30 30 36 27 20 33 35 28 16 21 18 16 16 17 16 15 9 6 9
54 53 53 54 53 51 54 53 52 48 45 45 43 46 32 47 61 61 63 51 41 33 46 31 22 15 15 17 21 31 32 29 15 30 34 30 18 18 10 19 20 19 21 19 18 20 19
56 56 57 53 54 54 56 58 55 50 49 52 48 45 33 41 63 68 60 47 49 47 35 44 31 21 14 13 22 14 34 30 30 18 28 24 28 21 20 23 16 21 24 23 23 16 20
53 50 56 49 51 56 58 60 57 53 54 55 54 39 52 52 60 69 63 64 50 41 51 47 40 32 19 9 13 18 21 32 30 29 26 26 20 23 27 24 25 25 23 20 19 22 24
50 52 55 55 56 54 59 61 57 55 56 60 59 43 51 44 60 67 52 55 52 46 42 54 50 40 30 17 9 18 16 18 28 33 33 32 26 24 26 24 25 22 22 21 20 21 24
50 49 50 53 52 53 61 61 58 58 65 66 67 64 46 62 43 55 72 61 44 45 51 40 47 43 41 26 19 15 7 10 14 16 28 32 31 29 25 25 25 22 27 26 24 24 26
52 50 51 51 51 55 54 64 59 60 66 62 66 60 48 49 49 53 62 51 58 47 47 48 32 35 43 30 33 29 23 16 18 15 19 20 26 28 22 21 6 25 27 26 24 27 29
56 54 51 51 52 50 52 62 61 61 65 67 64 67 50 44 49 55 45 56 39 47 49 41 40 27 26 28 37 33 30 27 25 23 18 20 20 17 16 21 22 17 25 25 21 33 28
54 51 51 48 45 53 56 60 61 60 66 66 53 67 52 46 54 46 39 45 48 43 43 44 27 30 19 18 10 25 12 10 10 15 21 21 23 24 13 11 10 26 26 26 25 30 25
49 52 48 45 44 49 59 53 58 58 64 62 56 65 55 42 38 47 47 36 48 44 47 44 35 20 30 28 23 16 26 9 9 17 20 24 24 27 26 21 20 18 19 17 15 34 22
43 44 47 46 42 51 50 54 55 56 61 56 65 71 47 47 42 33 33 46 38 45 45 43 33 36 30 24 15 13 15 33 34 17 21 30 30 25 26 21 17 21 22 25 31 26 20
37 42 42 40 46 48 47 52 49 54 53 53 69 67 57 28 39 29 34 34 37 42 32 36 38 30 39 32 31 17 17 18 31 40 35 27 32 29 31 29 28 23 21 22 24 21 23

GFSGBSN_700_spd_066.txt.gz
Wind_Speed
36 37 37 36 36 35 35 34 33 32 33 33 33 32 32 32 32 33 30 30 29 27 25 22 22 19 15 15 13 13 11 8 4 4 6 7 8 7 6 6 7 7 8 6 8 11 9
40 39 39 38 39 39 37 36 35 34 32 32 33 32 33 33 33 33 33 30 31 28 26 25 24 21 17 15 14 11 11 9 6 6 9 10 9 9 8 6 3 3 3 5 4 2 4
45 44 43 42 41 40 40 39 38 36 34 32 31 31 32 32 33 33 33 32 31 30 27 27 25 23 19 14 14 11 13 11 9 9 13 11 8 8 7 5 5 4 2 2 2 4 5
47 48 48 47 46 44 43 41 40 39 37 34 32 30 31 31 30 32 32 31 31 30 28 27 26 24 21 16 14 14 16 14 11 11 13 11 11 9 8 7 5 3 3 7 2 3 7
44 46 47 50 50 50 48 45 43 42 40 37 34 32 31 30 30 30 31 30 31 31 27 27 27 24 21 19 15 18 18 17 15 14 15 11 10 10 11 9 8 8 7 4 5 4 7
40 42 44 46 48 51 52 50 47 45 42 40 36 34 32 30 30 30 28 29 28 29 27 27 27 22 19 11 14 19 21 22 18 15 14 13 13 11 11 13 16 9 9 6 8 5 10
36 37 38 38 41 45 48 52 52 49 45 42 40 37 34 32 31 29 27 25 27 29 28 26 22 16 19 12 17 20 23 25 21 18 13 14 10 11 9 12 10 9 6 6 7 5 8
36 36 36 37 37 36 39 45 50 53 49 45 42 40 37 33 32 29 26 25 26 28 29 26 26 29 19 16 20 23 26 29 27 19 16 13 12 9 8 8 8 8 8 8 4 5 11
40 40 40 39 38 38 37 35 39 46 52 49 44 42 39 36 33 29 25 26 22 27 29 32 28 29 26 28 22 28 30 30 27 21 20 16 8 13 10 8 8 10 11 7 7 9 8
42 43 43 43 43 42 41 39 36 36 43 52 48 44 41 38 35 29 25 25 19 20 17 28 25 31 29 30 33 27 30 32 26 25 19 18 16 13 14 12 11 11 8 9 8 6 3
45 46 46 46 46 45 45 45 42 37 37 42 51 47 44 40 38 29 26 21 16 11 6 10 21 25 28 37 25 36 32 36 25 22 23 18 16 16 13 15 14 9 6 6 7 8 5
51 49 49 49 49 49 48 47 46 43 38 37 43 50 47 44 39 29 26 18 14 8 10 9 12 19 25 35 30 25 37 38 25 22 25 17 14 11 8 7 12 9 5 1 4 5 8
55 54 53 51 51 51 50 50 49 46 41 39 37 46 49 46 37 33 27 20 13 15 7 12 14 17 21 28 31 28 43 43 32 27 28 23 19 14 10 7 11 9 7 7 6 5 3
56 54 52 49 47 47 48 49 50 48 44 39 37 36 48 49 39 36 29 27 19 15 25 8 17 14 18 21 24 28 34 38 35 27 21 26 22 20 16 13 10 14 13 6 6 5 5
55 55 53 50 46 44 43 44 45 46 44 38 35 30 42 47 43 40 37 36 31 24 19 16 9 13 17 23 19 24 33 40 37 34 23 27 22 16 18 16 12 11 13 10 2 2 3
56 53 50 47 44 42 43 44 45 43 42 37 35 28 35 44 43 42 44 51 33 25 25 23 16 11 16 22 21 27 29 33 36 35 28 13 20 17 16 19 17 12 12 8 7 4 6
59 56 55 53 49 46 45 43 44 39 40 36 33 31 38 38 38 45 50 58 41 25 24 25 19 15 16 18 28 26 21 15 37 35 32 23 16 10 23 19 16 16 14 10 7 6 4
52 51 54 57 56 53 47 43 41 42 40 39 37 41 40 33 45 52 60 55 27 39 28 25 21 28 15 19 23 27 30 26 14 35 40 30 17 17 16 17 20 18 17 18 13 10 8
53 52 49 51 57 55 47 48 46 48 47 45 46 44 36 33 54 53 63 49 40 23 38 24 24 20 23 14 16 24 26 30 13 27 34 35 21 17 17 15 20 19 19 17 16 16 15
46 47 50 51 46 46 49 49 52 52 52 51 50 45 35 40 46 64 55 40 47 39 28 35 22 23 18 18 18 13 25 26 30 13 31 35 25 28 24 18 15 21 21 20 20 18 18
53 49 48 47 49 51 52 51 55 56 55 58 59 50 56 50 52 59 58 37 43 43 44 31 34 25 19 14 13 21 14 27 26 27 26 33 30 27 26 20 18 19 19 21 26 26 24
51 49 52 51 50 53 54 52 57 61 58 66 65 52 53 34 49 56 63 53 42 50 38 45 35 34 24 20 10 15 15 24 20 34 31 34 25 23 21 21 22 22 22 23 24 20 21
47 46 45 47 55 54 51 55 55 61 61 72 67 61 40 56 42 48 57 58 47 42 44 35 36 28 38 27 18 13 13 11 18 18 29 29 27 22 23 18 16 20 28 22 21 24 22
51 50 49 46 47 51 56 58 58 64 65 71 68 64 48 38 46 43 48 52 50 42 42 32 28 37 39 38 31 25 23 13 13 17 18 23 29 23 19 18 8 26 21 21 24 23 23
50 53 55 53 51 49 53 58 66 63 62 72 66 69 52 42 38 43 41 48 44 39 38 38 27 26 32 38 32 23 29 23 24 20 20 15 21 23 17 20 19 17 24 24 26 25 24
40 43 49 52 53 48 49 56 61 63 59 71 59 61 57 39 46 39 43 41 52 48 37 38 33 21 25 27 17 17 16 9 12 13 25 20 24 18 17 11 8 21 25 25 21 24 23
42 45 45 51 51 47 50 50 54 59 58 69 53 64 57 51 40 29 43 41 42 43 44 36 28 34 32 25 21 16 13 27 9 8 14 24 24 27 21 11 14 16 15 16 17 31 16
38 47 45 51 51 47 46 52 51 57 61 66 54 61 57 44 19 35 36 41 35 43 47 36 30 29 34 27 19 13 11 17 24 19 8 14 21 22 21 14 14 20 19 24 28 20 18
27 40 48 51 47 46 47 45 46 55 65 60 54 62 56 54 24 34 35 34 38 42 39 36 43 35 29 25 21 15 15 15 17 17 39 20 16 18 23 19 21 18 15 19 21 20 21

GFSGBSN_700_spd_072.txt.gz
Wind_Speed
32 33 33 34 33 34 33 32 33 33 32 31 31 31 30 29 29 30 30 30 30 31 30 29 29 26 23 23 16 25 17 15 13 13 11 8 9 9 12 15 14 14 15 14 13 14 14
32 33 33 33 34 35 35 34 33 33 32 33 33 33 32 31 30 28 29 28 29 29 30 31 30 29 29 28 15 22 18 16 14 14 12 9 10 7 17 16 14 15 13 15 19 9 13
32 32 33 34 34 34 36 36 35 34 34 35 33 33 34 32 31 30 29 27 28 28 27 30 31 32 32 25 19 20 18 16 14 15 12 8 11 13 8 13 12 16 19 17 19 20 15
33 34 34 34 36 35 36 36 36 36 36 36 35 36 34 33 32 31 30 28 27 28 26 28 29 32 35 23 21 21 17 17 16 16 13 10 13 15 13 14 16 18 18 19 25 9 5
33 34 34 34 35 35 36 36 36 37 36 37 37 38 37 35 32 32 31 29 28 28 27 27 27 30 33 27 23 21 20 16 17 18 16 15 15 12 11 16 16 14 21 18 8 14 11
35 34 34 34 34 34 35 34 34 34 36 37 38 38 39 38 35 33 31 29 27 29 30 28 27 26 21 22 15 15 19 20 19 16 15 15 13 13 15 14 21 9 15 12 10 8 11
36 36 36 35 34 35 35 35 34 34 34 35 36 36 38 40 38 35 31 27 26 26 31 26 21 25 8 16 19 19 15 22 21 19 22 18 17 19 19 19 21 17 16 17 8 7 9
38 38 37 37 36 35 35 35 34 34 34 34 35 35 36 38 40 35 31 27 22 32 37 36 33 33 27 23 21 20 17 25 27 28 21 19 26 19 18 18 13 13 14 16 12 7 6
41 41 40 39 37 36 35 35 34 33 32 32 31 32 33 34 35 34 33 26 27 27 37 44 37 39 26 29 29 20 22 27 29 26 26 27 22 18 18 13 11 11 14 17 13 9 12
44 43 43 41 39 38 35 33 32 32 33 32 32 30 30 29 28 33 29 21 24 19 23 36 29 33 31 29 35 25 28 28 27 29 26 26 22 15 16 15 14 14 11 17 14 13 13
45 45 45 44 43 40 37 34 33 32 32 33 32 31 28 27 24 23 21 21 15 7 6 9 16 18 15 37 18 28 31 30 35 30 25 32 26 24 19 20 16 16 11 11 13 15 17
43 43 44 44 45 45 42 39 37 36 35 34 33 32 31 27 24 15 24 20 15 9 12 8 16 17 19 28 32 8 31 35 31 30 27 26 23 24 25 18 18 16 16 14 14 17 15
39 39 39 41 42 42 42 42 42 40 38 38 36 35 34 29 24 16 24 19 15 19 21 18 18 14 18 22 31 24 28 38 40 38 37 29 29 24 21 21 19 17 15 12 9 11 8
38 39 40 41 41 42 42 42 43 42 41 40 39 38 35 32 26 18 29 27 21 33 39 6 19 18 20 20 25 30 28 40 41 36 31 30 25 31 23 22 18 19 19 9 6 4 4
42 43 43 44 44 45 44 44 43 42 41 39 36 36 37 34 27 24 32 39 39 35 30 35 12 17 19 19 17 27 35 38 42 44 41 30 33 25 26 22 23 18 25 23 13 14 8
45 46 46 45 44 41 38 36 35 35 35 34 33 35 39 28 28 26 36 39 43 48 36 26 37 19 16 20 22 19 35 31 43 43 37 29 27 28 31 25 24 25 16 21 18 5 10
49 47 45 43 39 35 32 32 36 36 31 28 31 36 41 27 26 34 49 55 49 53 40 34 29 27 35 17 22 25 22 28 31 35 37 39 18 23 25 34 27 24 22 17 20 20 8
49 46 43 40 40 42 40 35 32 34 33 34 37 44 39 30 37 49 61 56 46 41 42 36 30 28 28 29 15 24 21 29 29 33 39 41 25 26 29 26 25 25 24 23 18 15 16
45 44 43 43 43 41 38 37 35 33 37 39 43 44 40 36 50 57 51 50 40 36 40 39 36 26 25 23 31 22 26 22 30 12 42 39 39 21 24 28 25 28 31 26 26 23 24
45 45 46 46 44 43 43 42 42 37 41 44 46 45 46 44 50 40 40 39 38 41 40 40 33 30 24 29 18 13 18 27 30 26 18 31 40 33 20 22 26 30 29 30 28 25 20
45 46 47 49 50 50 49 47 45 42 46 51 55 56 51 55 60 47 34 29 38 40 45 45 38 36 30 25 28 24 17 13 24 35 23 18 27 37 33 26 25 27 28 28 30 28 25
50 54 56 57 57 57 55 52 45 45 49 58 64 62 49 44 35 48 47 43 41 36 37 50 46 36 30 33 20 18 27 26 20 32 35 29 21 31 36 31 31 30 30 30 29 28 28
50 49 48 47 46 44 42 44 49 52 56 63 69 67 32 46 33 41 61 46 38 35 34 42 48 36 31 29 16 14 15 22 22 27 23 24 23 30 31 31 27 35 34 23 23 24 23
47 47 47 49 49 49 48 49 50 53 59 67 73 69 57 40 50 50 34 43 42 37 38 36 41 46 43 18 24 25 1 14 22 23 25 11 26 30 26 26 24 27 27 28 24 23 21
45 46 47 49 48 46 51 58 58 57 62 64 72 70 67 57 36 38 34 35 36 35 33 35 40 44 42 32 26 30 18 20 21 24 28 14 17 20 24 29 23 30 19 20 21 25 20
45 48 48 47 46 49 51 48 54 66 60 59 72 69 66 65 50 28 35 30 36 38 31 33 37 38 35 32 26 17 7 15 12 14 25 27 21 19 16 20 17 25 26 15 24 28 21
42 43 44 46 54 51 51 55 51 51 63 62 69 70 62 65 51 35 35 38 31 34 36 29 40 37 36 41 29 22 20 16 13 17 17 24 26 30 25 17 15 18 24 25 26 20 22
34 37 40 41 49 51 50 51 54 55 52 59 63 65 65 61 36 45 35 35 32 37 37 30 33 38 31 40 32 20 18 26 23 21 22 19 26 25 30 23 22 13 17 30 33 27 18
34 35 37 34 44 46 47 53 50 52 53 51 67 56 58 53 48 37 48 39 33 31 32 30 46 33 40 30 33 23 16 22 26 26 24 31 20 23 16 16 24 21 25 16 21 22 16

GFSGBSN_700_spd_075.txt.gz
Wind_Speed
29 29 29 29 30 31 33 33 30 28 29 30 31 31 31 30 29 29 28 28 27 27 27 29 30 29 28 27 19 22 20 17 13 14 14 12 14 5 7 7 19 26 12 14 22 22 23
28 28 29 29 30 29 30 30 32 33 30 30 31 30 30 31 31 30 29 28 27 29 27 28 31 30 30 30 17 21 20 16 15 15 14 14 14 5 11 19 21 15 19 16 21 24 27
28 28 28 29 29 29 30 30 31 32 32 32 32 33 31 29 29 30 30 29 28 28 28 28 30 33 31 24 18 24 22 16 16 15 15 11 9 10 11 17 13 16 16 21 23 25 23
28 29 28 28 29 30 29 30 32 31 32 32 32 34 34 33 31 30 29 27 28 29 29 29 30 35 34 25 23 22 23 19 18 18 15 13 6 16 20 19 17 19 17 23 17 21 14
29 29 30 30 30 30 30 30 31 30 31 31 32 34 35 35 34 33 30 27 26 29 29 30 29 35 31 25 17 17 22 22 17 18 16 17 13 22 22 12 15 14 26 23 25 16 6
31 31 31 31 31 32 31 30 30 30 30 31 31 32 33 35 35 34 32 28 26 30 29 31 31 33 21 19 21 16 15 20 21 18 19 19 21 21 20 15 22 15 19 14 17 12 11
32 32 32 33 32 32 32 32 31 30 30 30 31 31 31 32 31 33 32 28 27 29 34 32 28 30 20 19 23 12 12 17 21 23 22 18 21 27 21 17 15 18 21 24 13 10 9
35 34 34 35 35 35 35 34 33 32 31 31 30 30 29 27 25 28 30 25 24 30 40 37 34 38 27 21 29 23 14 20 27 30 22 20 35 24 16 15 22 28 17 15 15 10 5
37 36 37 37 38 38 37 36 36 34 33 32 33 31 30 29 24 20 21 22 25 28 39 50 38 38 27 31 36 28 22 24 27 30 29 32 30 19 16 14 21 16 12 15 14 15 10
38 39 39 40 40 40 39 38 36 36 34 32 30 31 30 29 28 17 17 18 23 26 24 45 35 37 30 31 42 29 30 28 32 32 30 33 29 24 27 24 18 15 12 17 13 10 10
40 41 42 42 42 42 42 41 39 36 33 31 29 28 28 27 22 12 16 11 15 14 5 11 11 14 8 27 25 22 33 33 37 33 29 37 25 31 28 25 17 20 16 13 12 13 16
43 43 43 43 43 43 42 41 41 39 36 33 31 29 30 27 20 14 9 10 12 10 12 6 15 19 18 18 23 15 29 38 34 33 34 30 28 28 30 23 19 17 18 16 15 13 11
43 43 42 41 40 40 40 40 39 38 38 38 36 33 32 30 18 19 14 19 15 14 14 20 13 17 19 22 19 22 18 45 40 32 40 37 36 29 28 27 24 19 18 3 5 3 7
42 40 39 37 37 36 36 36 36 36 36 36 37 37 36 32 21 21 20 23 18 35 44 11 10 10 20 22 24 28 29 36 47 36 21 32 25 36 30 32 25 23 23 11 6 2 4
38 37 36 36 36 37 37 37 37 38 38 37 37 37 38 33 22 25 24 32 42 49 26 40 24 26 23 15 19 24 39 36 40 49 35 27 27 19 33 26 27 22 23 25 4 3 4
37 37 38 39 40 40 40 40 40 40 39 37 36 33 39 26 19 30 34 50 53 45 36 22 23 17 24 11 19 26 26 36 35 41 45 30 18 31 28 30 27 32 17 22 23 7 5
39 40 41 41 41 41 41 41 40 39 36 31 29 33 41 25 24 34 54 51 37 49 35 36 37 38 37 33 24 22 21 28 27 32 39 44 25 23 26 36 34 29 29 23 14 14 6
42 43 43 44 45 43 42 39 37 36 33 28 32 38 38 29 38 47 59 49 50 34 29 38 39 35 32 31 34 26 33 24 25 23 41 40 27 29 33 19 40 36 33 29 20 12 12
46 46 48 46 42 41 40 38 39 37 32 33 38 41 38 32 49 56 45 39 48 43 39 38 32 40 38 34 25 18 25 21 21 31 38 31 32 24 25 29 31 41 31 27 26 28 27
49 49 45 42 41 40 39 39 39 37 36 35 40 40 44 45 50 44 47 49 44 42 41 39 39 31 35 32 27 34 12 21 23 25 31 37 29 33 26 22 16 32 35 32 27 30 28
48 45 44 43 41 40 41 42 42 41 40 39 46 53 43 44 56 50 45 44 46 42 35 37 43 37 38 30 29 34 20 14 16 28 26 21 35 38 32 32 26 28 28 27 30 32 24
47 46 44 43 42 43 45 45 46 43 39 45 54 60 44 53 34 56 54 45 36 24 31 36 42 38 37 37 27 31 25 19 15 20 35 30 25 33 31 28 35 30 26 33 33 33 29
48 49 49 48 48 49 49 49 49 48 44 53 58 61 38 46 50 43 57 58 45 33 28 28 33 35 41 46 21 28 29 18 13 14 26 38 26 18 32 27 24 32 34 28 30 28 27
39 40 40 41 44 47 48 48 48 51 53 58 63 61 61 47 45 56 40 43 49 43 35 31 29 28 31 35 25 26 35 26 18 28 20 33 38 21 19 26 15 16 28 23 25 29 20
42 42 42 41 40 38 39 43 46 46 50 60 65 67 70 71 32 38 48 30 25 32 47 34 31 26 25 22 31 25 29 36 30 28 24 26 29 15 16 29 18 29 25 19 20 29 26
38 39 40 40 42 44 45 42 44 51 49 60 64 69 66 60 64 27 36 35 37 40 36 42 30 28 21 28 29 22 13 15 8 5 24 23 22 18 9 8 9 23 25 20 18 27 20
40 41 42 43 44 44 44 46 46 50 53 56 60 66 66 62 58 51 31 31 24 28 32 33 35 26 32 27 34 29 28 21 12 8 16 25 35 20 14 7 14 9 28 17 21 15 20
41 43 44 46 48 48 48 48 48 50 57 55 58 62 67 64 57 57 40 25 31 31 32 28 27 29 34 34 31 27 26 26 23 22 17 18 20 24 21 8 9 12 14 29 28 28 24
34 35 35 37 38 40 44 47 48 51 50 53 54 57 60 65 44 44 48 39 28 29 31 31 28 27 31 34 38 24 23 18 29 30 24 19 19 17 21 18 11 14 21 16 13 16 18